Volver al catálogo

COSMOS 1745

ActivoMilitarPO
NORAD 16727·PAYLOAD·🇷🇺 Russia

Lanzado May 23, 1986 desde Plesetsk Cosmodrome

Loading…

Próximos Pases (próximas 24 horas)

TLE

ActualizadoSource: Space-Track

Época: Sep 14, 2026, 09:13 UTC

1 16727U 86037A   26257.38459751  .00000048  00000-0  35339-4 0  9990
2 16727  82.9584  39.6029 0030383 317.4351  60.8756 13.74428152 21429

Sigue COSMOS 1745 en tiempo real con AllMySat

Download on the App Store